• MPC Preparation (Info)

  • MPEC 2012-T41 : 2012 TD53

    The following Minor Planet Electronic Circular may be linked-to from your own Web pages, but must not otherwise be redistributed electronically.

    A form allowing access to any MPEC is at the bottom of this page.


    Read MPEC 2012-T40 Read MPEC 2012-T42


    M.P.E.C. 2012-T41                                Issued 2012 Oct. 10, 17:14 UT
    
         The Minor Planet Electronic Circulars contain information on unusual
             minor planets and routine data on comets.  They are published
       on behalf of Commission 20 of the International Astronomical Union by the
              Minor Planet Center, Smithsonian Astrophysical Observatory,
                              Cambridge, MA 02138, U.S.A.
    
                 Prepared using the Tamkin Foundation Computer Network
    
                                  MPC@CFA.HARVARD.EDU
                URL https://www.minorplanetcenter.net/    ISSN 1523-6714
    
                                       2012 TD53
    
    Observations:
         K12T53D* C2012 10 08.44019202 17 15.142+04 04 36.09         20.5 rLET041F51
         K12T53D  C2012 10 08.45258302 17 15.432+04 05 14.43         20.3 rLET041F51
         K12T53D  C2012 10 08.51975002 17 16.999+04 08 41.42         19.6 iLET041F51
         K12T53D  C2012 10 08.53342502 17 17.323+04 09 23.48         20.0 iLET041F51
         K12T53D KC2012 10 09.25219902 17 45.41 +04 46 11.6          19.6 VvET041H21
         K12T53D KC2012 10 09.25659202 17 45.52 +04 46 25.2          19.9 VvET041H21
         K12T53D KC2012 10 09.26085102 17 45.62 +04 46 38.3          19.4 VvET041H21
         K12T53D KC2012 10 09.26464002 17 45.72 +04 46 50.3          19.9 VvET041H21
         K12T53D  C2012 10 10.50459 02 18 26.63 +05 50 48.5          19.6 RoET041H01
         K12T53D  C2012 10 10.51008 02 18 26.78 +05 51 05.4          19.4 RoET041H01
         K12T53D  C2012 10 10.51455 02 18 26.89 +05 51 19.2          20.1 RoET041H01
    
    Observer details:
    F51 Pan-STARRS 1, Haleakala.  Observers N. Primak, A. Schultz, S. Watters,
        J. Thiel, T. Goggia.  Measurer PS1 Science Consortium.  1.8-m
        Ritchey-Chretien + CCD.
    H01 Magdalena Ridge Observatory, Socorro.  Observer W. H. Ryan.  2.4-m f/8.9
        reflector + CCD.
    H21 Astronomical Research Observatory, Westfield.  Observer R. Holmes.
        Measurers T. Vorobjov, L. Buzzi, S. Foglia.  0.61-m f/4.0 astrograph + CCD.
    
    Orbital elements:
    2012 TD53                                                Earth MOID = 0.2188 AU
    Epoch 2012 Sept. 30.0 TT = JDT 2456200.5                MPC
    M 358.80176              (2000.0)            P               Q
    n   0.25385173     Peri.  345.93691     +0.96369612     -0.25540012
    a   2.4702977      Node    29.21983     +0.25778958     +0.81409164
    e   0.5086030      Incl.    9.17644     +0.06952931     +0.52156071
    P   3.88           H   22.1           G   0.15           U   6
    Residuals in seconds of arc
    121008 F51  0.0   0.0     121009 H21  0.0   0.0     121010 H01  0.0   0.0
    121008 F51  0.1-  0.1+    121009 H21  0.0   0.0     121010 H01  0.0   0.0
    121008 F51  0.0   0.0     121009 H21  0.0   0.1-    121010 H01  0.1-  0.0
    121008 F51  0.0   0.1-    121009 H21  0.2+  0.2+
    
    Ephemeris:
    2012 TD53                a,e,i = 2.47, 0.51, 9                   q = 1.2139
    Date    TT    R. A. (2000) Decl.     Delta      r     Elong.  Phase     V
    2012 09 10    01 41 28.9 -15 33 52   0.2848  1.2445   142.3    29.7    21.1
    ...
    2012 09 25    02 04 33.3 -06 41 25   0.2424  1.2187   149.9    24.3    20.6
    ...
    2012 10 03    02 13 05.0 -00 29 59   0.2304  1.2140   155.5    20.0    20.3
    ...
    2012 10 09    02 17 35.7 +04 33 32   0.2269  1.2148   160.3    16.1    20.2
    2012 10 10    02 18 11.4 +05 25 04   0.2267  1.2153   161.1    15.4    20.1
    2012 10 11    02 18 44.6 +06 16 40   0.2268  1.2159   161.9    14.8    20.1
    ...
    2012 10 17    02 21 13.6 +11 23 13   0.2299  1.2216   166.8    10.7    20.0
    ...
    2012 10 25    02 22 51.0 +17 42 54   0.2422  1.2346   171.9     6.5    20.0
    ...
    2012 11 09    02 24 12.0 +26 42 36   0.2897  1.2749   167.5     9.7    20.6
    
    A. U. Tomatic                (C) Copyright 2012 MPC           M.P.E.C. 2012-T41
    

    Read MPEC 2012-T40 Read MPEC 2012-T42


    MPEC number:

    Enter an MPEC number in one of the following forms:

    • 1997-B01 (the full form)
    • J97B01 (the packed version of the full form)
    • B01 (the abbreviated form)